Weather Service Report


605 
ASUS41 KBOX 010710
RWRBOX

REGIONAL WEATHER ROUNDUP
NATIONAL WEATHER SERVICE TAUNTON MA
300 AM EDT WED JUN 01 2016

NOTE:  "FAIR" INDICATES FEW OR NO CLOUDS BELOW 12,000 FEET WITH NO 
SIGNIFICANT WEATHER AND/OR OBSTRUCTIONS TO VISIBILITY.  THE FOLLOWING 
OBSERVATION LOCATIONS DO NOT REPORT PRESENT WEATHER...PROVINCETOWN...
SMITHFIELD...BLOCK ISLAND...KEENE...AND OXFORD.

MAZALL-010800-
EASTERN MASSACHUSETTS
  
CITY           SKY/WX    TMP DP  RH WIND       PRES   REMARKS
BOSTON         PTCLDY    68  52  56 N7        29.99R                  
BEVERLY        PTCLDY    63  51  65 N5        29.99R                  
LAWRENCE       PTCLDY    61  51  70 N3        30.02R                  
BEDFORD        CLEAR     57  53  86 CALM      29.99R                  
BLUE HILL        N/A     63  50  62 N13       29.99R                  
NORWOOD        CLEAR     54  52  93 CALM      29.99R                  
MARSHFIELD     PTCLDY    63  59  88 VRB6      29.97R                  
PLYMOUTH       PTCLDY    60  59  96 CALM      29.98R                  
TAUNTON        FOG       58  55  90 CALM      29.97S VSB 1/4          
NEW BEDFORD    FOG       58  57  97 CALM      29.97R VSB 3/4          
$$

MAZALL-010800-
CAPE COD AND THE ISLANDS
  
CITY           SKY/WX    TMP DP  RH WIND       PRES   REMARKS
FALMOUTH       CLEAR     59  59 100 NW5       29.97S                  
HYANNIS        CLEAR     58  57  97 CALM      29.95S                  
CHATHAM        PTCLDY    61  60  97 NW3       29.97R                  
PROVINCETOWN   PTCLDY    61  57  87 N8        29.98R                  
NANTUCKET      PTCLDY    60  58  92 W9        29.96F                  
MARTHAS VNYRD  CLEAR     60  59  96 W5        29.97S                  
$$
 
MAZALL-010800-
CENTRAL AND WESTERN MASSACHUSETTS
  
CITY           SKY/WX    TMP DP  RH WIND       PRES   REMARKS
WORCESTER      CLEAR     67  45  45 N10       30.02R                  
FITCHBURG      CLEAR     61  51  70 CALM      30.02R                  
ORANGE         CLEAR     54  52  93 CALM      30.03R                  
SPRINGFIELD    CLEAR     53  50  88 CALM      30.00R                  
WESTFIELD      CLEAR     55  49  80 N5        30.02R                  
NORTH ADAMS    CLEAR     50  47  89 CALM      30.06R                  
PITTSFIELD     CLEAR     52  47  83 CALM      30.04R                  
$$
 
RIZALL-010800-
RHODE ISLAND
  
CITY           SKY/WX    TMP DP  RH WIND       PRES   REMARKS
PROVIDENCE     CLEAR     65  58  78 W5        29.98S                  
NEWPORT        CLEAR     60  58  92 CALM      29.98R                  
BLOCK ISLAND   PTCLDY    63  61  93 W8        30.00R                  
SMITHFIELD     PTCLDY   N/A N/A N/A NW3       29.99S                  
WESTERLY       CLOUDY    61  56  83 CALM      30.00R                  
$$
 
CTZALL-010800-
CONNECTICUT
  
CITY           SKY/WX    TMP DP  RH WIND       PRES   REMARKS
BRADLEY INTL   PTCLDY    57  50  77 W3        30.00R                  
HARTFORD       CLEAR     65  60  84 CALM      30.00R                  
BRIDGEPORT     CLEAR     66  61  84 NW3       30.00R                  
DANBURY        CLOUDY    58  55  90 SW5       30.04R                  
GROTON         CLEAR     59  59 100 CALM      29.99R                  
NEW HAVEN      PTCLDY    60  59  96 CALM      30.00R                  
CHESTER        FAIR      64  52  63 CALM      30.01S                  
MERIDEN        CLEAR     62  59  90 CALM      30.01R                  
WILLIMANTIC    CLEAR     59  55  87 N3        30.01R                  
OXFORD           N/A     59  48  67 N3        30.04R                  
$$

MEZ002-015-021-024-NHZ003-005-008-011-012-014-VTZ005-008-010800-
NORTHERN NEW ENGLAND
  
CITY           SKY/WX    TMP DP  RH WIND       PRES   REMARKS
PORTLAND ME    CLEAR     58  51  78 NW6       30.02R                  
BANGOR ME      CLEAR     59  52  77 N3        30.01R                  
CONCORD NH     CLEAR     56  51  84 E3        30.03R                  
MANCHESTER NH  CLEAR     61  52  72 N3        30.01R                  
NASHUA NH      PTCLDY    58  53  84 NW3       30.02R                  
PORTSMOUTH NH  CLEAR     58  54  88 NW3       30.00R                  
JAFFREY NH     CLEAR     52  50  93 CALM      30.05R                  
KEENE NH       CLEAR    N/A N/A N/A CALM      30.05R                  
BURLINGTON VT  CLOUDY    62  51  67 N13       30.08R                  
MT. WASHINGTON FOG       41  41 100 NW33        N/A  VSB 1/16WCI  29  
$$

NYZ052-076-010800-
EASTERN NEW YORK
  
CITY           SKY/WX    TMP DP  RH WIND       PRES   REMARKS
ALBANY         PTCLDY    60  50  69 N3        30.05R                  
NEW YORK CITY  CLOUDY    74  63  69 NE5       30.00R                  
$$
 
ANZALL-010800-
MARINE OBSERVATIONS
  
STATION/POSITION TIME  TEMP    WIND        PRES    VSBY  WAVE
                       AIR SEA DIR/SP/G                  HT/PER
                 (UTC) (F)     (DEG/KT/KT) (MB)    (MI)  (FT/S)
BOSTON BUOY      0650   63 60   30/  6/  8 1015.4R         1/10
BUZZARDS BAY     0700   62     260/ 11/ 11 1015.3R
NANTUCKET SOUND  0650   61 59  240/  8/  8 1014.6R         1/ 7
MASS BAY-STELLWA 0604   60 56                N/A    1 7/8  1/ 8
ISLE OF SHOALS   0700   66      10/ 10/ 10 1015.8R
S OF BLOCK IS    0625      59                N/A           6/ 8
$$

......................KEY.........................
  SKY/WX - SKY CONDITION/PRESENT WEATHER
  TMP    - TEMPERATURE IN FAHRENHEIT
  DWPT   - DEWPOINT IN FAHRENHEIT
  RH     - RELATIVE HUMIDITY IN PERCENT
  WIND   - DIRECTION AND SPEED IN MPH
  PRES   - MEAN SEA LEVEL PRESSURE IN INCHES OF HG
  WCI    - WIND CHILL INDEX
  VSB    - VISIBILITY IN MILES
  HX     - HEAT INDEX
  TC     - TEMPERATURE IN CELSIUS
  VRB    - VARIABLE WIND DIRECTION
  N/A    - NOT AVAILABLE
  

Return to Home page


Western Regional Climate Center, wrcc@dri.edu